www.pogodaiklimat.ru

Погода и климат >> Архив погоды >> Таиланд >> Ko Sichang


ПОГОДА в Ko Sichang

  • Прогноз погоды в Ko Sichang
  • Монитор погоды в Ko Sichang
  • Климат города

АРХИВ ПОГОДЫ в Ko Sichang

Время (UTC), дата Ветер
(напр.,м/с)
 
Видим.   Явления Облачность Т
(С)
Тd
(С)
f
(%)
Тe
(С)
Тes
(С)
Комфортность P
(гПа)
Po
(гПа)
Тmin
(С)
Tmax
(С)
R
(мм)
R24
(мм)
S
(см)
18 11.12 штиль 0 8000 м дымка {гроза} 5/0
[Cs]
+27.0 +25.6 92 +40 +40 очень
душно
1011.5 1008.3
21 11.12 СВ 3 8000 м дымка 5/0
[Cs]
+26.5 +24.9 91 +38 +38 очень
душно
1010.4 1007.2
00 12.12 СВ 5 8000 м дымка 8/4 600 м
[Sc Ac As Cs]
+27.2 +24.0 83 +38 +38 очень
душно
1011.8 1008.6 +25.0
03 12.12 СВ 3 10 км {дождь} 10/8 600 м
[Sc Ac As]
+27.3 +24.4 84 +38 +39 очень
душно
1013.9 1010.7 0.0
06 12.12 штиль 0 10 км {дождь} 10/5 600 м
[Sc Ac As Cs]
+28.5 +24.9 81 +41 +46 опасность
перегрева
1012.5 1009.4 0.0
09 12.12 штиль 0 10 км 8/0
[Ac As Cs]
+29.5 +24.5 75 +42 +45 опасность
перегрева
1011.8 1008.7
12 12.12 В 3 10 км 8/3 600 м
[Sc Ac As Cs]
+28.5 +24.6 79 +40 +40 очень
душно
1011.4 1008.3 +30.3
15 12.12 В 3 10 км 8/0
[Ac As Cs]
+28.0 +23.6 77 +38 +38 очень
душно
1012.8 1009.7
18 12.12 СВ 5 10 км 8/0
[Ac As Cs]
+27.0 +22.6 77 +36 +36 очень
душно
1012.7 1009.5
21 12.12 В 8 10 км 8/3 600 м
[Sc Ac As Cs]
+25.8 +21.6 78 +33 +33 очень
душно
1011.9 1008.7
00 13.12 С 8 10 км 8/0
[Cs]
+25.0 +21.2 79 +32 +32 очень
душно
1013.5 1010.3 +24.0
03 13.12 В 7 10 км 4/0
[Cs]
+26.6 +21.3 73 +34 +36 очень
душно
1015.3 1012.1
06 13.12 В 7 12 км 4/0
[Cs]
+28.8 +22.3 68 +38 +41 очень
душно
1013.1 1010.0
09 13.12 ЮВ 4 12 км 6/0
[Cs]
+29.7 +22.2 64 +39 +41 очень
душно
1011.1 1008.0
12 13.12 СВ 4 10 км 6/1 600 м
[Cu hum Ac lent Cs]
+28.7 +22.0 67 +37 +37 очень
душно
1012.2 1009.1 +30.2
15 13.12 СВ 4 10 км 6/0
[Cs]
+27.5 +22.2 73 +36 +36 очень
душно
1014.5 1011.3
18 13.12 В 5 10 км 5/0
[Cs]
+26.5 +22.0 76 +34 +34 очень
душно
1014.0 1010.8
21 13.12 В 4 10 км 4/0
[Cs]
+26.0 +21.3 75 +33 +33 очень
душно
1012.6 1009.4
00 14.12 С 7 10 км 9/4 600 м
[Sc Ac As Cs]
+25.0 +20.4 76 +31 +31 очень
душно
1013.7 1010.5 +24.5
03 14.12 СВ 7 10 км 4/0
[Cs]
+26.2 +20.6 71 +33 +35 очень
душно
1015.3 1012.1
06 14.12 СВ 5 10 км 4/0
[Cs]
+28.5 +21.8 67 +37 +43 очень
душно
1013.3 1010.1
09 14.12 СВ 4 10 км 6/0
[Cs]
+29.0 +23.2 71 +39 +41 очень
душно
1011.5 1008.3
12 14.12 СВ 3 10 км 4/0
[Cs]
+27.7 +22.2 72 +36 +36 очень
душно
1012.2 1009.1 +29.6
15 14.12 В 4 10 км 3/0
[Cs]
+27.4 +23.2 78 +37 +37 очень
душно
1013.9 1010.8
18 14.12 СВ 4 10 км 3/0
[Cs]
+27.0 +23.2 80 +36 +36 очень
душно
1013.9 1010.7
21 14.12 СВ 5 10 км 3/0
[Cs]
+26.4 +22.7 80 +35 +35 очень
душно
1012.7 1009.5
00 15.12 С 4 10 км 6/0
[Cs]
+25.7 +21.8 79 +33 +33 очень
душно
1013.4 1010.2 +25.0
03 15.12 СВ 9 12 км 8/1 600 м
[Sc Ac trans Cs]
+26.3 +21.0 73 +33 +34 очень
душно
1015.1 1012.0
06 15.12 С 3 12 км 6/0
[Ac trans Cs]
+29.4 +23.0 68 +39 +48 очень
душно
1013.1 1009.9
09 15.12 Ю 4 12 км 4/0
[Cs]
+29.5 +22.4 66 +39 +41 очень
душно
1011.3 1008.2
12 15.12 В 3 10 км 4/0
[Cs]
+28.3 +22.9 73 +38 +38 очень
душно
1013.3 1010.1 +30.5
15 15.12 В 3 10 км 8/0
[Cs]
+28.0 +22.9 74 +37 +37 очень
душно
1015.8 1012.7
18 15.12 СВ 3 10 км 6/0
[Cs]
+28.2 +22.4 71 +37 +37 очень
душно
1014.7 1011.6
21 15.12 В 6 10 км 8/4 600 м
[Sc Cs]
+27.2 +22.5 76 +36 +36 очень
душно
1013.2 1010.0
00 16.12 В 4 10 км 8/5 600 м
[Sc Cs]
+26.5 +21.7 75 +34 +34 очень
душно
1014.5 1011.3 +25.8
03 16.12 СВ 5 12 км 8/4 600 м
[Sc Cs]
+26.5 +22.0 76 +34 +37 очень
душно
1015.8 1012.6
06 16.12 В 5 12 км 8/3 600 м
[Sc Ac As Cs]
+28.0 +23.0 74 +37 +41 очень
душно
1014.8 1011.6
09 16.12 В 3 12 км 4/3 600 м
[Cu hum Cs]
+30.3 +24.9 73 +43 +46 опасность
перегрева
1011.1 1008.0
12 16.12 В 3 10 км 4/0
[Cs]
+29.0 +23.9 74 +40 +40 очень
душно
1012.5 1009.4 +30.8
15 16.12 СВ 3 10 км 4/0
[Cs]
+28.5 +24.9 81 +41 +41 опасность
перегрева
1014.8 1011.6
18 16.12 штиль 0 10 км 3/0
[Cs]
+27.0 +24.1 84 +37 +37 очень
душно
1013.7 1010.5
21 16.12 В 4 10 км 4/0
[Cs]
+26.5 +23.1 82 +36 +36 очень
душно
1012.7 1009.6
00 17.12 С 7 10 км 6/0
[Cs]
+25.6 +22.5 83 +34 +34 очень
душно
1014.7 1011.5 +25.0
03 17.12 СВ 3 12 км 4/0
[Cs]
+28.1 +23.1 74 +38 +45 очень
душно
1015.4 1012.3
06 17.12 В 8 12 км 4/0
[Cs]
+30.5 +24.5 70 +43 +45 опасность
перегрева
1013.4 1010.3
09 17.12 СВ 5 12 км 4/0
[Cs]
+30.5 +24.0 68 +42 +44 опасность
перегрева
1010.9 1007.8
12 17.12 С 4 10 км 3/0
[Cs]
+29.0 +23.2 71 +39 +39 очень
душно
1012.4 1009.3 +30.7
15 17.12 штиль 0 10 км 3/0
[Cs]
+27.4 +24.1 82 +38 +38 очень
душно
1014.1 1010.9
18 17.12 В 4 10 км 3/0
[Cs]
+26.2 +23.4 85 +36 +36 очень
душно
1013.3 1010.2
21 17.12 В 4 10 км 3/0
[Cs]
+25.9 +23.3 86 +35 +35 очень
душно
1012.5 1009.3
00 18.12 СВ 3 10 км 6/0
[Cs]
+26.0 +22.3 80 +34 +34 очень
душно
1013.1 1009.9 +24.9
03 18.12 СВ 6 12 км 6/0
[Cs]
+28.0 +22.2 71 +37 +40 очень
душно
1014.1 1011.0
06 18.12 В 6 12 км 6/0
[Cs]
+30.3 +23.3 66 +41 +45 опасность
перегрева
1011.5 1008.4
09 18.12 ЮВ 3 12 км 6/0
[Cs]
+31.0 +25.2 71 +45 +47 опасность
перегрева
1009.9 1006.8
12 18.12 СВ 3 10 км 6/0
[Cs]
+29.0 +24.9 79 +42 +42 опасность
перегрева
1011.8 1008.7 +31.4

 

Местоположение метеостанции Ko Sichang (Таиланд): широта 13.17 долгота 100.80 высота над уровнем моря 26 м.

В архиве по умолчанию представлена погода в Ko Sichang за последнюю неделю. Архивные данные за месяц целиком и за предыдущие месяцы, начиная с января 2011 года, Вы можете получить, выбрав интересующий диапазон дат из раскрывающегося списка и нажав кнопку "Ввод!".


*Определитесь, кто Вы:
робот инопланетянин человек

Внимание! Время в таблицах - всемирное. Для получения местного времени необходимо прибавить поправку, которая в Ko Sichang равна 7 ч.

Смотрите также архив погоды в соседних городах и на ближайших метеорологических станциях:

Погода в Phatthaya (Таиланд) (29 км)
Погода в Chon Buri (Таиланд) (30 км)
Погода в Ratcha Buri (Таиланд) (30 км)
Погода в Bangkok Pilot (Таиланд) (32 км)
Погода в Samutprakan Agromet (Таиланд) (39 км)
Погода в Suvarnabhumi IA (Таиланд) (57 км)
Погода в Sattahip (Таиланд) (58 км)
Погода в Bang Na Agromet (Таиланд) (59 км)
Погода в Huai Pong Agromet (Таиланд) (61 км)
Погода в Bangkok 2 (Таиланд) (64 км)

Пояснения к столбцам:

Ветер - указаны скорость ветра в м/с - средняя за 10 мин, порывы в срок и между сроками (в фигурных скобках) и направление, откуда дует ветер: С - северный, СВ - северо-восточный, В - восточный, ЮВ - юго-восточный, Ю - южный, ЮЗ - юго-западный, З - западный, СЗ - северо-западный.
Видимость - горизонтальная дальность видимости в метрах или километрах. При видимости от 1 до 10 км при отсутствии осадков обычно наблюдается дымка, при ухудшении видимости до 1 км и менее - туман. В сухую погоду видимость может ухудшаться дымом, пылью или мглою.
Явления - указаны атмосферные явления, наблюдавшиеся в срок или в последний час перед сроком; фигурными скобками обозначены явления, наблюдавшиеся между сроками (за 1-3 часа до срока); квадратными скобками обозначены град или гололедные отложения с указанием их диаметра в мм.
Облачность - указаны через наклонную черту общая и нижняя облачность в баллах и высота нижней границы облаков в метрах; квадратными скобками обозначены формы облаков: Ci - перистые, Cs - перисто-слоистые, Cc - перисто-кучевые, Ac - высококучевые, As - высокослоистые, Sc - слоисто-кучевые, Ns - слоисто-дождевые, Cu - кучевые, Cb - кучево-дождевые. Подробнее классификацию облаков см. в Атласе облаков (PDF).
T - Температура воздуха - температура, измеренная на высоте 2 м над землей.
Td - Температура точки росы - температура, при понижении до которой содержащийся в воздухе водяной пар достигнет насыщения.
f - Относительная влажность воздуха - влажноcть воздуха, измеренная на высоте 2 м над землей.
Te - Эффективная температура - температура, которую ощущает одетый по сезону человек в тени. Характеристика душности погоды. При расчете учитывается влияние влажности воздуха и скорости ветра на теплоощущения человека.
Tes - Эффективная температура на солнце - температура, которую ощущает человек, с поправкой на солнечный нагрев. Характеристика знойности погоды. Зависит от высоты солнца над горизонтом, облачности и скорости ветра. Ночью, в пасмурную погоду, а также при ветре 12 м/с и более поправка равна нулю.
P - Атмосферное давление - приведенное к уровню моря атмосферное давление.
Po - Атмосферное давление - измеренное на уровне метеостанции атмосферное давление.
Tmin - Минимальная температура - минимум температуры воздуха на высоте 2 м над землей.
Tmax - Максимальная температура - максимум температуры воздуха на высоте 2 м над землей.
R - Количество осадков - Количество выпавших осадков за период времени, мм. При наведении курсора мыши на число - период времени, за который выпало указанное количество осадков.
R24 - Количество осадков - Количество выпавших осадков за 24 часа, мм.
S - Снежный покров - Высота снежного покрова, см. При наведении курсора мыши на число - состояние снежного покрова и степень покрытия местности в баллах.